Doctors Lake Weather Center

Moon Phase Calendar



Doctors Lake Water Level
Online Cameras

 


      

Current Conditions in Lakeside
5/25/2022 10:01:41 AM

81°F
Feels Like 86
Clouds
Humidity
74%
Pressure
30.15"
Wind
10.4 mph (SE)
Dew Point
72°F
UV Index
4/10 (Moderate)
Visibility
6 mi

Hourly Forecast

Date & Time Wed, May 25
10:00 AM
Wed, May 25
11:00 AM
Wed, May 25
12:00 PM
Wed, May 25
1:00 PM
Wed, May 25
2:00 PM
Wed, May 25
3:00 PM
Wed, May 25
4:00 PM
Wed, May 25
5:00 PM
Wed, May 25
6:00 PM
Wed, May 25
7:00 PM
Wed, May 25
8:00 PM
Wed, May 25
9:00 PM
Wed, May 25
10:00 PM
Wed, May 25
11:00 PM
Thu, May 26
12:00 AM
Thu, May 26
1:00 AM
Thu, May 26
2:00 AM
Thu, May 26
3:00 AM
Thu, May 26
4:00 AM
Thu, May 26
5:00 AM
Thu, May 26
6:00 AM
Thu, May 26
7:00 AM
Thu, May 26
8:00 AM
Thu, May 26
9:00 AM
Thu, May 26
10:00 AM
Thu, May 26
11:00 AM
Thu, May 26
12:00 PM
Thu, May 26
1:00 PM
Thu, May 26
2:00 PM
Thu, May 26
3:00 PM
Thu, May 26
4:00 PM
Thu, May 26
5:00 PM
Thu, May 26
6:00 PM
Thu, May 26
7:00 PM
Thu, May 26
8:00 PM
Thu, May 26
9:00 PM
Thu, May 26
10:00 PM
Thu, May 26
11:00 PM
Fri, May 27
12:00 AM
Fri, May 27
1:00 AM
Fri, May 27
2:00 AM
Fri, May 27
3:00 AM
Fri, May 27
4:00 AM
Fri, May 27
5:00 AM
Fri, May 27
6:00 AM
Fri, May 27
7:00 AM
Fri, May 27
8:00 AM
Fri, May 27
9:00 AM
Condition
Clouds

Clouds

Clouds

Clouds

Clouds

Clouds

Clouds

Clouds

Clouds

Clouds

Clouds

Clouds

Clouds

Clouds

Clouds

Clouds

Clouds

Clouds

Clouds

Clouds

Clouds

Clouds

Clouds

Clouds

Clouds

Clouds

Clouds

Clouds

Clouds

Clouds

Clouds

Clouds

Clouds

Clouds

Clouds

Clouds

Clouds

Clouds

Clouds

Clouds

Clouds

Clouds

Clouds

Clouds

Clouds

Clouds

Rain

Rain
Temperature 81°F82°F85°F88°F90°F92°F91°F89°F87°F83°F80°F78°F77°F77°F76°F76°F75°F74°F74°F74°F73°F73°F76°F79°F82°F83°F84°F87°F90°F94°F94°F93°F90°F85°F82°F79°F78°F76°F76°F75°F74°F74°F73°F73°F72°F72°F75°F78°F
Feels Like 86°F87°F88°F90°F92°F92°F91°F90°F89°F86°F80°F79°F78°F78°F77°F77°F76°F75°F75°F75°F74°F74°F77°F79°F84°F85°F86°F88°F91°F94°F94°F94°F92°F88°F84°F79°F79°F78°F77°F76°F75°F75°F74°F74°F73°F73°F76°F79°F
Cloudiness 75%80%85%89%94%99%99%99%97%98%98%100%100%100%100%100%100%100%100%100%99%99%99%97%99%99%99%99%100%93%81%82%87%87%85%41%30%35%44%41%43%54%74%81%77%75%65%21%
Visibility 6 mi6 mi6 mi6 mi6 mi6 mi6 mi6 mi6 mi6 mi6 mi6 mi6 mi6 mi6 mi6 mi6 mi6 mi6 mi6 mi6 mi6 mi6 mi6 mi6 mi6 mi6 mi6 mi6 mi6 mi6 mi6 mi6 mi6 mi6 mi6 mi6 mi6 mi6 mi6 mi6 mi6 mi6 mi6 mi6 mi6 mi6 mi6 mi
Precipitation 0%0%0%0%0%0%0%0%0%0%0%9%9%12%12%8%6%0%0%0%0%0%0%0%0%0%0%0%0%0%0%0%0%0%0%6%18%35%39%39%35%23%15%15%15%15%35%33%
Humidity 74%68%60%50%42%35%37%42%48%57%65%70%73%75%76%77%79%81%82%83%86%86%79%67%58%54%52%46%40%34%32%34%43%56%63%69%75%79%80%82%82%83%82%83%85%83%77%71%
Dew Point 72°F71°F69°F67°F64°F60°F62°F63°F65°F66°F67°F67°F68°F68°F68°F68°F68°F68°F68°F68°F69°F69°F69°F68°F65°F65°F65°F64°F62°F61°F60°F61°F64°F67°F68°F68°F69°F69°F69°F69°F68°F68°F67°F67°F67°F67°F67°F68°F
Pressure 30.15"30.15"30.12"30.09"30.09"30.03"30.03"30.03"30.03"30.06"30.06"30.09"30.09"30.09"30.12"30.12"30.09"30.09"30.06"30.06"30.06"30.09"30.12"30.09"30.09"30.12"30.12"30.09"30.06"30.03"30"29.97"29.97"29.97"30"30"30"30"30"30"30"29.97"29.97"29.97"29.97"30"30"30"
Wind Speed 8.5 mph8.4 mph8.8 mph9.5 mph11 mph12.9 mph13.6 mph13.5 mph13 mph12 mph11 mph9.6 mph9.2 mph8.2 mph5.8 mph5.3 mph4.8 mph5 mph5.4 mph5.3 mph4.9 mph5.4 mph8.1 mph10.2 mph9.3 mph9 mph8.4 mph7.4 mph6.3 mph6.9 mph8.8 mph9 mph11.9 mph12.4 mph10.7 mph9.8 mph8.7 mph7.9 mph7.5 mph6.6 mph6.4 mph5.9 mph5.8 mph6 mph5.1 mph5.1 mph6.8 mph7.4 mph
Wind
Direction
151°
SSE
148°
SSE
141°
SE
130°
SE
119°
ESE
111°
ESE
108°
ESE
110°
ESE
113°
ESE
112°
ESE
117°
ESE
123°
ESE
134°
SE
138°
SE
159°
SSE
174°
S
163°
SSE
144°
SE
136°
SE
140°
SE
145°
SE
153°
SSE
152°
SSE
148°
SSE
151°
SSE
176°
S
175°
S
172°
S
168°
SSE
163°
SSE
157°
SSE
139°
SE
125°
SE
127°
SE
132°
SE
133°
SE
153°
SSE
165°
SSE
178°
S
179°
S
168°
SSE
176°
S
175°
S
178°
S
181°
S
177°
S
188°
S
191°
S

Daily Forecast

Date High Low Precip. Humidity
Today
May 25

Clouds
92 °F
72 °F
12%
50%
Thursday
May 26

Clouds
94 °F
73 °F
35%
46%
Friday
May 27

Rain
92 °F
72 °F
39%
39%
Saturday
May 28

Clear
94 °F
70 °F
9%
27%
Sunday
May 29

Clear
96 °F
70 °F
9%
26%
Monday
May 30

Clear
99 °F
72 °F
0%
22%
Tuesday
May 31

Rain
93 °F
68 °F
100%
32%
Wednesday
Jun 1

Rain
86 °F
66 °F
100%
40%
Thursday
Jun 2

Rain
87 °F
69 °F
96%
45%
Friday
Jun 3

Rain
89 °F
69 °F
100%
45%
Saturday
Jun 4

Rain
87 °F
71 °F
98%
50%
Sunday
Jun 5

Rain
94 °F
71 °F
50%
36%
Monday
Jun 6

Rain
95 °F
75 °F
56%
37%
Tuesday
Jun 7

Rain
90 °F
74 °F
83%
53%
Wednesday
Jun 8

Rain
82 °F
73 °F
100%
83%
Thursday
Jun 9

Rain
82 °F
72 °F
100%
69%

Temperature 8-14 Day Outlook



Precipitation 8-14 Day Outlook




Quick Links
Doctors Lake News
Doctors Lake Photos
Doctors Lake Videos




About Us
Contact Us
Site Map
Search Site
Advertise With Us
   
Doctors.LakesOnline.com
THE DOCTORS LAKE WEBSITE

Copyright 2022, Lakes Online
Privacy    |    Legal